Weather History for KDAL - March, 2013

Change the Weather History Date:

Saturday, March 30, 2013

  Actual Average Record
Temperature  
Mean Temperature 67 °F -  
Max Temperature 78 °F 69 °F 87 °F (2008)
Min Temperature 57 °F 51 °F 36 °F (2003)
Cooling Degree Days 2    
Growing Degree Days 17 (Base 50)    
Moisture  
Dew Point 58 °F    
Average Humidity 74    
Maximum Humidity 93    
Minimum Humidity 52    
Precipitation  
Precipitation 1.04 in - - ()
Sea Level Pressure  
Sea Level Pressure 30.00 in    
Wind  
Wind Speed 9 mph (South)    
Max Wind Speed 21 mph    
Max Gust Speed 34 mph    
Visibility 9 miles    
Events Rain , Thunderstorm    
Averages and records for this station are not official NWS values.
T = Trace of Precipitation, MM = Missing Value Source: NWS Daily Summary

Daily Weather History Graph

Daily Weather History Graph

Search for Another Location

Airport or City:

Trip Planner

Search our weather history database for the weather conditions in past years. The results will help you decide how hot, cold, wet, or windy it might be!

Date:

Astronomy

Mar. 30, 2013 Rise Set
Actual Time 7:17 AM CDT 7:46 PM CDT
Civil Twilight 6:52 AM CDT 8:11 PM CDT
Nautical Twilight 6:23 AM CDT 8:40 PM CDT
Astronomical Twilight 5:54 AM CDT 9:09 PM CDT
Moon 11:41 PM CDT (3/30) 9:25 AM CDT (3/30)
Length of Visible Light 13h 18m
Length of Day
12h 28m
Waning Gibbous, 86% of the Moon is Illuminated
Mar 30
Waning Gibbous
Apr 2
Last Quarter
Apr 10
New
Apr 18
First Quarter
Apr 25
Full

Hourly Weather History & Observations

Time (CDT) Temp. Dew Point Humidity Pressure Visibility Wind Dir Wind Speed Gust Speed Precip Events Conditions
12:53 AM 68.0 °F 57.0 °F 68% 30.04 in 10.0 mi South 10.4 mph - N/A   Overcast
1:53 AM 68.0 °F 57.0 °F 68% 30.05 in 10.0 mi South 8.1 mph - N/A   Overcast
1:57 AM 68.0 °F 57.2 °F 68% 30.07 in 10.0 mi Variable 3.5 mph - N/A Thunderstorm Thunderstorm
2:32 AM 60.8 °F 55.4 °F 82% 30.10 in 1.5 mi NW 20.7 mph 34.5 mph 0.29 in Rain , Thunderstorm Heavy Thunderstorms and Rain
2:46 AM 60.8 °F 57.2 °F 88% 30.11 in 1.0 mi Variable 4.6 mph - 0.68 in Rain , Thunderstorm Heavy Thunderstorms and Rain
2:53 AM 59.0 °F 57.0 °F 93% 30.05 in 1.0 mi SSE 6.9 mph - 0.85 in Rain , Thunderstorm Heavy Thunderstorms and Rain
3:00 AM 59.0 °F 53.6 °F 82% 30.05 in 7.0 mi South 4.6 mph - 0.06 in Rain , Thunderstorm Light Thunderstorms and Rain
3:17 AM 59.0 °F 55.4 °F 88% 30.07 in 9.0 mi SSW 11.5 mph 16.1 mph 0.09 in Rain , Thunderstorm Light Thunderstorms and Rain
3:53 AM 59.0 °F 54.0 °F 83% 30.06 in 10.0 mi SW 3.5 mph - 0.16 in Rain , Thunderstorm Light Thunderstorms and Rain
4:26 AM 59.0 °F 55.4 °F 88% 30.04 in 10.0 mi SSW 4.6 mph - 0.03 in Rain Light Rain
4:53 AM 59.0 °F 55.0 °F 87% 30.01 in 10.0 mi ENE 6.9 mph - 0.03 in   Overcast
5:53 AM 57.9 °F 55.0 °F 90% 30.03 in 10.0 mi ESE 3.5 mph - N/A   Scattered Clouds
6:53 AM 57.0 °F 54.0 °F 89% 30.03 in 10.0 mi SE 6.9 mph - N/A   Scattered Clouds
7:53 AM 57.9 °F 55.0 °F 90% 30.03 in 9.0 mi SE 8.1 mph - N/A   Mostly Cloudy
8:10 AM 59.0 °F 55.4 °F 88% 30.05 in 10.0 mi ESE 5.8 mph - N/A   Mostly Cloudy
8:45 AM 62.6 °F 57.2 °F 82% 30.04 in 10.0 mi SE 9.2 mph - N/A   Mostly Cloudy
8:53 AM 63.0 °F 57.0 °F 81% 30.03 in 10.0 mi SSE 10.4 mph - N/A   Mostly Cloudy
9:53 AM 64.0 °F 59.0 °F 84% 30.02 in 10.0 mi South 9.2 mph - N/A   Mostly Cloudy
10:10 AM 66.2 °F 60.8 °F 83% 30.04 in 10.0 mi South 8.1 mph - N/A   Overcast
10:53 AM 66.9 °F 60.1 °F 79% 30.02 in 10.0 mi SSW 10.4 mph - N/A   Overcast
11:53 AM 70.0 °F 61.0 °F 73% 30.01 in 10.0 mi SSW 11.5 mph - N/A   Mostly Cloudy
12:21 PM 71.6 °F 60.8 °F 69% 30.02 in 10.0 mi SSW 11.5 mph 18.4 mph N/A   Mostly Cloudy
12:53 PM 75.0 °F 61.0 °F 62% 29.99 in 10.0 mi SSW 11.5 mph 18.4 mph N/A   Mostly Cloudy
1:53 PM 77.0 °F 60.1 °F 56% 29.96 in 10.0 mi SSW 12.7 mph - N/A   Mostly Cloudy
2:53 PM 77.0 °F 57.9 °F 52% 29.93 in 10.0 mi SSW 9.2 mph - N/A   Mostly Cloudy
3:53 PM 77.0 °F 59.0 °F 54% 29.91 in 10.0 mi SW 9.2 mph 18.4 mph N/A   Mostly Cloudy
4:53 PM 77.0 °F 59.0 °F 54% 29.90 in 10.0 mi SW 8.1 mph - N/A   Overcast
5:53 PM 77.0 °F 60.1 °F 56% 29.89 in 10.0 mi SSW 6.9 mph - N/A   Overcast
6:53 PM 75.9 °F 61.0 °F 60% 29.89 in 10.0 mi South 10.4 mph - N/A   Mostly Cloudy
7:53 PM 73.9 °F 60.1 °F 62% 29.88 in 10.0 mi SSE 9.2 mph - N/A   Scattered Clouds
8:53 PM 73.0 °F 60.1 °F 64% 29.88 in 10.0 mi SSE 9.2 mph - N/A   Scattered Clouds
9:53 PM 73.0 °F 60.1 °F 64% 29.89 in 10.0 mi SSE 10.4 mph - N/A   Mostly Cloudy
10:53 PM 71.1 °F 61.0 °F 70% 29.89 in 10.0 mi SE 8.1 mph - N/A   Mostly Cloudy
11:53 PM 71.1 °F 59.0 °F 66% 29.88 in 10.0 mi SSE 11.5 mph - N/A   Mostly Cloudy